Location: Étouvelles
(49.5207°N, 3.5808°E)
Time: 07:27:17
(UTC+00:00)

Cosmos 2322 Rocket - Pass Details

Date: 03 February 2023
Orbit: 832 x 851 km, 71.0° (Epoch: 23 March)

Event Time Altitude Azimuth Distance (km) Brightness Sun altitude
Rises 18:14:44 0° 202° (SSW) 3,364 5.7 -14.9°
Reaches altitude 10° 18:17:09 10° 200° (SSW) 2,434 5.0 -15.3°
Maximum altitude 18:22:43 78° 116° (ESE) 857 2.1 -16.2°
Enters shadow 18:28:16 10° 31° (NNE) 2,429 4.2 -17.0°
